DL6MAA-11 Weather Reports


time (UTC)temp
C
wind
direction
speed
KPH
gust
KPH
rain 1hr
cm
rain 24hr
cm
rain mn
cm
humidity
%
barometer
mb
20260510213144 12 226 0.0 0.0 0.00 0.00 0.61 85 1005.1
20260510212647 12 226 0.0 0.0 0.00 0.00 0.61 85 1005.2
20260510212131 12 226 0.0 0.0 0.00 0.00 0.61 85 1005.2
20260510211636 12 229 0.0 0.0 0.00 0.00 0.61 85 1005.2
20260510211142 12 229 0.0 0.0 0.00 0.00 0.61 85 1005.4
20260510210634 12 252 0.0 0.0 0.00 0.00 0.61 85 1005.4
20260510210128 13 161 0.0 0.0 0.00 0.00 0.58 85 1005.4
20260510205640 13 160 0.0 0.0 0.00 0.00 0.58 85 1005.3
20260510205147 13 161 0.0 0.0 0.00 0.00 0.58 85 1005.3
20260510204635 13 161 0.0 0.0 0.00 0.00 0.58 85 1005.3
20260510204136 13 160 0.0 0.0 0.00 0.00 0.58 85 1005.6
20260510203641 13 161 0.0 0.0 0.00 0.00 0.58 85 1005.6
20260510203142 13 160 0.0 0.0 0.00 0.00 0.58 85 1005.6
20260510202636 13 360 0.0 0.0 0.00 0.00 0.58 85 1005.7
20260510202141 13 187 0.0 0.0 0.00 0.00 0.58 85 1005.7
20260510201642 13 187 0.0 0.0 0.00 0.00 0.58 85 1005.7
20260510201132 13 150 0.0 0.0 0.00 0.00 0.58 84 1006.0
20260510200632 13 360 0.0 0.0 0.00 0.00 0.58 84 1006.0
20260510200135 13 150 0.0 0.0 0.00 0.00 0.58 84 1006.0
20260510195640 13 113 0.0 0.0 0.00 0.00 0.58 84 1005.9
20260510195144 13 113 0.0 0.0 0.00 0.00 0.58 84 1005.9
20260510194646 13 360 0.0 0.0 0.00 0.00 0.58 84 1005.9
20260510194130 13 113 0.0 0.0 0.00 0.00 0.58 83 1005.8
20260510193637 13 113 0.0 0.0 0.00 0.00 0.58 83 1005.8
20260510193138 13 113 0.0 0.0 0.00 0.00 0.58 83 1005.8
20260510192638 13 113 0.0 0.0 0.00 0.00 0.58 83 1005.5
20260510192144 13 113 0.0 0.0 0.00 0.00 0.58 83 1005.5
20260510191644 13 113 0.0 0.0 0.00 0.00 0.58 83 1005.5
20260510191147 13 360 0.0 0.0 0.00 0.00 0.58 83 1005.6
20260510190648 13 113 0.0 0.0 0.00 0.00 0.58 83 1005.6
20260510190133 13 113 0.0 0.0 0.00 0.00 0.58 83 1005.6
20260510185630 13 113 0.0 0.0 0.00 0.00 0.56 83 1005.5
20260510185139 13 113 0.0 0.0 0.00 0.00 0.56 83 1005.5
20260510184648 13 113 0.0 0.0 0.00 0.00 0.53 83 1005.5
20260510184136 13 113 0.0 0.0 0.00 0.00 0.51 83 1005.5
20260510183638 13 113 0.0 0.0 0.00 0.00 0.48 83 1005.5
20260510183141 13 113 0.0 0.0 0.00 0.00 0.48 83 1005.5
20260510182635 13 113 0.0 0.0 0.00 0.00 0.46 83 1005.2
20260510182130 13 102 0.0 0.0 0.00 0.00 0.43 83 1005.2
20260510181642 13 125 0.0 0.0 0.00 0.00 0.43 82 1005.2
20260510181131 13 134 0.0 0.0 0.00 0.00 0.43 82 1005.3
20260510180637 13 166 0.0 0.0 0.00 0.00 0.43 82 1005.3
20260510180141 13 161 0.0 0.0 0.00 0.00 0.41 82 1005.3
20260510175649 13 156 0.0 0.0 0.00 0.00 0.41 82 1005.3
20260510175148 13 195 1.6 0.0 0.00 0.00 0.41 82 1005.3
20260510174630 13 161 1.6 0.0 0.00 0.00 0.41 82 1005.3
20260510174136 13 199 0.0 0.0 0.00 0.00 0.41 82 1005.1
20260510173646 13 150 0.0 0.0 0.00 0.00 0.41 82 1005.1
20260510173142 13 156 0.0 0.0 0.00 0.00 0.41 82 1005.1
20260510172638 13 154 0.0 0.0 0.00 0.00 0.41 81 1004.7
20260510172150 14 148 0.0 0.0 0.00 0.00 0.41 80 1004.7
20260510171636 15 149 0.0 0.0 0.00 0.00 0.41 77 1004.7
20260510171141 15 149 0.0 0.0 0.00 0.00 0.38 73 1004.6
20260510170646 16 360 0.0 0.0 0.00 0.00 0.33 72 1004.6
20260510170149 16 171 0.0 0.0 0.00 0.00 0.28 71 1004.6
20260510165644 16 360 1.6 0.0 0.00 0.00 0.23 69 1005.4
20260510165147 17 190 1.6 0.0 0.00 0.00 0.23 67 1005.4
20260510164635 17 180 1.6 0.0 0.00 0.00 0.15 64 1005.4
20260510164138 18 136 1.6 0.0 0.00 0.00 0.15 63 1005.0
20260510163650 19 164 3.2 0.0 0.00 0.00 0.10 61 1005.0
20260510163138 20 49 3.2 0.0 0.00 0.00 0.03 55 1005.0
20260510162640 20 179 1.6 0.0 0.00 0.00 0.00 49 1004.4
20260510162146 20 164 0.0 0.0 0.00 0.00 0.00 47 1004.4
20260510161629 20 113 0.0 0.0 0.00 0.00 0.00 47 1004.4
20260510161135 20 360 0.0 0.0 0.00 0.00 0.00 47 1004.6
20260510160647 20 101 0.0 0.0 0.00 0.00 0.00 47 1004.6
20260510160135 20 109 0.0 0.0 0.00 0.00 0.00 46 1004.6
20260510155643 20 360 0.0 0.0 0.00 0.00 0.00 45 1004.6
20260510155149 21 67 0.0 0.0 0.00 0.00 0.00 44 1004.6
20260510154647 21 22 0.0 0.0 0.00 0.00 0.00 43 1004.6
20260510154146 21 336 0.0 0.0 0.00 0.00 0.00 43 1004.7
20260510153647 21 360 0.0 0.0 0.00 0.00 0.00 41 1004.7
20260510153150 21 336 0.0 0.0 0.00 0.00 0.00 42 1004.7
20260510152632 21 355 0.0 0.0 0.00 0.00 0.00 42 1004.9
20260510152138 21 72 1.6 0.0 0.00 0.00 0.00 43 1004.9
20260510151641 22 29 1.6 0.0 0.00 0.00 0.00 41 1004.9
20260510151129 22 34 1.6 0.0 0.00 0.00 0.00 41 1004.7
20260510150632 23 15 0.0 0.0 0.00 0.00 0.00 43 1004.7
20260510150137 22 20 0.0 0.0 0.00 0.00 0.00 42 1004.7
20260510145643 22 27 0.0 0.0 0.00 0.00 0.00 41 1005.0
20260510145145 22 28 0.0 0.0 0.00 0.00 0.00 40 1005.0
20260510144649 22 45 0.0 0.0 0.00 0.00 0.00 44 1005.0
20260510144150 22 348 0.0 0.0 0.00 0.00 0.00 40 1004.8
20260510143636 22 360 1.6 0.0 0.00 0.00 0.00 41 1004.8
20260510143143 22 343 1.6 0.0 0.00 0.00 0.00 39 1004.8
20260510142651 22 79 0.0 0.0 0.00 0.00 0.00 42 1005.3
20260510142139 22 336 0.0 0.0 0.00 0.00 0.00 43 1005.3
20260510141644 22 38 0.0 0.0 0.00 0.00 0.00 40 1005.3
20260510141145 22 32 0.0 0.0 0.00 0.00 0.00 40 1005.3
20260510140649 22 30 1.6 0.0 0.00 0.00 0.00 41 1005.3
20260510140148 22 13 1.6 0.0 0.00 0.00 0.00 40 1005.3
20260510135634 22 20 1.6 0.0 0.00 0.00 0.00 42 1005.3
20260510135132 22 360 1.6 0.0 0.00 0.00 0.00 41 1005.3
20260510134643 22 105 1.6 0.0 0.00 0.00 0.00 43 1005.3
20260510134150 22 355 1.6 0.0 0.00 0.00 0.00 44 1005.8
20260510133636 21 42 1.6 0.0 0.00 0.00 0.00 45 1005.8
20260510133147 21 360 0.0 0.0 0.00 0.00 0.00 45 1005.8
20260510132636 21 39 0.0 0.0 0.00 0.00 0.00 46 1005.9
20260510132132 21 37 1.6 0.0 0.00 0.00 0.00 45 1005.9
20260510131637 21 73 1.6 0.0 0.00 0.00 0.00 46 1005.9
20260510131138 21 78 3.2 0.0 0.00 0.00 0.00 46 1006.0
20260510130649 21 360 3.2 0.0 0.00 0.00 0.00 48 1006.0
20260510130148 21 80 1.6 0.0 0.00 0.00 0.00 46 1006.0
20260510125633 21 57 1.6 0.0 0.00 0.00 0.00 46 1005.9
20260510125144 21 360 1.6 0.0 0.00 0.00 0.00 46 1005.9
20260510124648 21 34 1.6 0.0 0.00 0.00 0.00 46 1005.9
20260510124137 21 34 1.6 0.0 0.00 0.00 0.00 47 1005.8
20260510123640 21 59 1.6 0.0 0.00 0.00 0.00 47 1005.8
20260510123147 21 51 1.6 0.0 0.00 0.00 0.00 47 1005.8
20260510122632 21 52 1.6 0.0 0.00 0.00 0.00 46 1006.1
20260510122138 21 24 1.6 0.0 0.00 0.00 0.00 45 1006.1
20260510121643 21 360 1.6 0.0 0.00 0.00 0.00 45 1006.1
20260510121137 21 17 0.0 0.0 0.00 0.00 0.00 44 1006.2
20260510120645 22 36 1.6 0.0 0.00 0.00 0.00 46 1006.2
20260510120138 22 15 1.6 0.0 0.00 0.00 0.00 43 1006.2
20260510115645 22 40 3.2 0.0 0.00 0.00 0.00 44 1006.2
20260510115139 22 84 3.2 0.0 0.00 0.00 0.00 46 1006.2
20260510114644 22 34 1.6 0.0 0.00 0.00 0.00 51 1006.2
20260510114138 21 24 1.6 0.0 0.00 0.00 0.00 49 1006.6
20260510113643 21 40 3.2 0.0 0.00 0.00 0.00 49 1006.6
20260510113134 21 63 3.2 0.0 0.00 0.00 0.00 48 1006.6
20260510112642 21 360 3.2 0.0 0.00 0.00 0.00 50 1006.7
20260510112146 21 76 3.2 0.0 0.00 0.00 0.00 49 1006.7
20260510111632 21 121 3.2 0.0 0.00 0.00 0.00 51 1006.7
20260510111134 21 102 3.2 0.0 0.00 0.00 0.00 51 1006.7
20260510110642 21 76 3.2 0.0 0.00 0.00 0.00 50 1006.7
20260510110150 21 41 1.6 0.0 0.00 0.00 0.00 51 1006.7
20260510105636 21 78 3.2 0.0 0.00 0.00 0.00 50 1007.1
20260510105145 21 360 3.2 0.0 0.00 0.00 0.00 50 1007.1
20260510104650 21 82 3.2 0.0 0.00 0.00 0.00 49 1007.1
20260510104148 21 92 1.6 0.0 0.00 0.00 0.00 53 1007.4
20260510103634 20 59 1.6 0.0 0.00 0.00 0.00 54 1007.4
20260510103141 20 27 0.0 0.0 0.00 0.00 0.00 55 1007.4
20260510102649 19 355 0.0 0.0 0.00 0.00 0.00 54 1007.5
20260510102135 19 10 0.0 0.0 0.00 0.00 0.00 54 1007.5
20260510101642 18 79 1.6 0.0 0.00 0.00 0.00 56 1007.5
20260510101147 18 86 1.6 0.0 0.00 0.00 0.00 55 1007.4
20260510100645 19 67 1.6 0.0 0.00 0.00 0.00 53 1007.4
20260510100130 18 72 1.6 0.0 0.00 0.00 0.00 54 1007.4
20260510095653 18 100 1.6 0.0 0.00 0.00 0.00 55 1007.4
20260510095134 18 360 1.6 0.0 0.00 0.00 0.00 56 1007.4
20260510094635 18 69 1.6 0.0 0.00 0.00 0.00 55 1007.4
20260510094144 18 79 1.6 0.0 0.00 0.00 0.00 56 1007.5
20260510093652 18 29 1.6 0.0 0.00 0.00 0.00 57 1007.5
20260510093131 18 37 3.2 0.0 0.00 0.00 0.00 56 1007.5
20260510092638 18 72 3.2 0.0 0.00 0.00 0.00 55 1007.8
20260510092142 18 65 3.2 0.0 0.00 0.00 0.00 56 1007.8
20260510091644 18 62 1.6 0.0 0.00 0.00 0.00 55 1007.8
20260510091144 18 60 1.6 0.0 0.00 0.00 0.00 56 1007.7
20260510090638 18 99 3.2 0.0 0.00 0.00 0.00 56 1007.7
20260510090132 18 61 3.2 0.0 0.00 0.00 0.00 57 1007.7
20260510085648 18 95 3.2 0.0 0.00 0.00 0.00 57 1007.7
20260510085142 18 71 3.2 0.0 0.00 0.00 0.00 57 1007.7
20260510084639 18 360 3.2 0.0 0.00 0.00 0.00 58 1007.7
20260510084147 18 61 3.2 0.0 0.00 0.00 0.00 59 1007.8
20260510083638 18 76 1.6 0.0 0.00 0.00 0.00 60 1007.8
20260510083150 17 360 1.6 0.0 0.00 0.00 0.00 59 1007.8
20260510082653 17 67 0.0 0.0 0.00 0.00 0.00 62 1008.0
20260510082138 17 22 1.6 0.0 0.00 0.00 0.00 62 1008.0
20260510081646 16 360 1.6 0.0 0.00 0.00 0.00 62 1008.0
20260510081145 16 36 1.6 0.0 0.00 0.00 0.00 63 1007.9
20260510080634 16 82 3.2 0.0 0.00 0.00 0.00 62 1007.9
20260510080139 16 67 1.6 0.0 0.00 0.00 0.00 62 1007.9
20260510075642 16 42 1.6 0.0 0.00 0.00 0.00 63 1008.3
20260510075130 16 65 1.6 0.0 0.00 0.00 0.00 62 1008.3
20260510074632 16 67 0.0 0.0 0.00 0.00 0.00 63 1008.3
20260510074138 15 75 1.6 0.0 0.00 0.00 0.00 65 1008.3
20260510073644 15 72 1.6 0.0 0.00 0.00 0.00 65 1008.3
20260510073131 15 42 1.6 0.0 0.00 0.00 0.00 64 1008.3
20260510072645 15 84 3.2 0.0 0.00 0.00 0.00 65 1008.4
20260510072151 15 84 3.2 0.0 0.00 0.00 0.00 66 1008.4
20260510071640 14 68 3.2 0.0 0.00 0.00 0.00 67 1008.4
20260510071147 14 360 1.6 0.0 0.00 0.00 0.00 67 1008.4
20260510070634 14 67 1.6 0.0 0.00 0.00 0.00 67 1008.4
20260510070153 14 78 1.6 0.0 0.00 0.00 0.00 69 1008.4
20260510065632 13 75 3.2 0.0 0.00 0.00 0.00 69 1008.5
20260510065137 13 74 3.2 0.0 0.00 0.00 0.00 69 1008.5
20260510064645 13 53 1.6 0.0 0.00 0.00 0.00 69 1008.5
20260510064133 13 71 1.6 0.0 0.00 0.00 0.00 70 1008.6
20260510063648 13 86 1.6 0.0 0.00 0.00 0.00 71 1008.6
20260510063136 12 75 0.0 0.0 0.00 0.00 0.00 71 1008.6
20260510062641 12 44 0.0 0.0 0.00 0.00 0.00 71 1008.7
20260510062148 12 55 0.0 0.0 0.00 0.00 0.00 71 1008.7
20260510061634 12 28 0.0 0.0 0.00 0.00 0.00 72 1008.7
20260510061136 12 63 0.0 0.0 0.00 0.00 0.00 72 1008.8
20260510060638 12 64 0.0 0.0 0.00 0.00 0.00 70 1008.8
20260510060146 12 360 0.0 0.0 0.00 0.00 0.00 72 1008.8
20260510055650 12 56 0.0 0.0 0.00 0.00 0.00 71 1009.0
20260510055152 12 66 0.0 0.0 0.00 0.00 0.00 73 1009.0
20260510054637 11 55 0.0 0.0 0.00 0.00 0.00 74 1009.0
20260510054144 11 56 0.0 0.0 0.00 0.00 0.00 74 1009.4
20260510053643 10 49 0.0 0.0 0.00 0.00 0.00 77 1009.4
20260510053148 10 87 0.0 0.0 0.00 0.00 0.00 78 1009.4
20260510052640 9 84 0.0 0.0 0.00 0.00 0.00 80 1009.6
20260510052139 8 84 0.0 0.0 0.00 0.00 0.00 80 1009.6
20260510051644 8 84 0.0 0.0 0.00 0.00 0.00 80 1009.6
20260510051132 7 84 0.0 0.0 0.00 0.00 0.00 81 1009.6
20260510050637 7 84 0.0 0.0 0.00 0.00 0.00 82 1009.6
20260510050152 7 84 0.0 0.0 0.00 0.00 0.00 82 1009.6
20260510045651 6 84 0.0 0.0 0.00 0.00 0.00 83 1008.8
20260510045142 6 84 0.0 0.0 0.00 0.00 0.00 81 1008.8
20260510044647 6 84 0.0 0.0 0.00 0.00 0.00 80 1008.8
20260510044146 6 84 0.0 0.0 0.00 0.00 0.00 79 1009.0
20260510043651 6 84 0.0 0.0 0.00 0.00 0.00 79 1009.0
20260510043132 6 84 0.0 0.0 0.00 0.00 0.00 78 1009.0
20260510042633 6 84 0.0 0.0 0.00 0.00 0.00 78 1009.3
20260510042141 6 84 0.0 0.0 0.00 0.00 0.00 78 1009.3
20260510041647 6 84 0.0 0.0 0.00 0.00 0.00 78 1009.3
20260510041136 6 84 0.0 0.0 0.00 0.00 0.00 78 1009.2
20260510040642 6 84 0.0 0.0 0.00 0.00 0.00 78 1009.2
20260510040150 6 89 0.0 0.0 0.00 0.00 0.00 78 1009.2
20260510035641 6 360 0.0 0.0 0.00 0.00 0.00 77 1009.1
20260510035134 6 84 0.0 0.0 0.00 0.00 0.00 76 1009.1
20260510034642 6 80 0.0 0.0 0.00 0.00 0.00 75 1009.1
20260510034141 6 79 0.0 0.0 0.00 0.00 0.00 75 1010.1
20260510033640 6 79 0.0 0.0 0.00 0.00 0.00 75 1010.1
20260510033139 6 79 0.0 0.0 0.00 0.00 0.00 75 1010.1
20260510032650 6 79 0.0 0.0 0.00 0.00 0.00 75 1010.1
20260510032150 6 79 0.0 0.0 0.00 0.00 0.00 75 1010.1
20260510031635 6 79 0.0 0.0 0.00 0.00 0.00 75 1010.1
20260510031135 6 79 0.0 0.0 0.00 0.00 0.00 75 1010.1
20260510030640 7 79 0.0 0.0 0.00 0.00 0.00 75 1010.1
20260510030143 7 79 0.0 0.0 0.00 0.00 0.00 75 1010.1
20260510025633 7 79 0.0 0.0 0.00 0.00 0.00 75 1010.0
20260510025141 7 78 0.0 0.0 0.00 0.00 0.00 75 1010.0
20260510024632 7 78 0.0 0.0 0.00 0.00 0.00 75 1010.0
20260510024137 7 78 0.0 0.0 0.00 0.00 0.00 75 1010.2
20260510023643 7 78 0.0 0.0 0.00 0.00 0.00 76 1010.2
20260510023137 7 78 0.0 0.0 0.00 0.00 0.00 76 1010.2
20260510022639 7 78 0.0 0.0 0.00 0.00 0.00 75 1010.0
20260510022145 7 78 0.0 0.0 0.00 0.00 0.00 75 1010.0
20260510021634 7 78 0.0 0.0 0.00 0.00 0.00 75 1010.0
20260510021135 7 78 0.0 0.0 0.00 0.00 0.00 75 1010.4
20260510020640 7 78 0.0 0.0 0.00 0.00 0.00 74 1010.4
20260510020134 7 78 0.0 0.0 0.00 0.00 0.00 74 1010.4
20260510015636 7 78 0.0 0.0 0.00 0.00 0.00 75 1010.6
20260510015143 7 78 0.0 0.0 0.00 0.00 0.00 75 1010.6
20260510014651 7 78 0.0 0.0 0.00 0.00 0.00 74 1010.6
20260510014154 7 78 0.0 0.0 0.00 0.00 0.00 74 1010.6
20260510013638 7 78 0.0 0.0 0.00 0.00 0.00 74 1010.6
20260510013145 7 78 0.0 0.0 0.00 0.00 0.00 74 1010.6
20260510012633 8 78 0.0 0.0 0.00 0.00 0.00 74 1010.5
20260510012140 8 78 0.0 0.0 0.00 0.00 0.00 74 1010.5
20260510011638 8 78 0.0 0.0 0.00 0.00 0.00 74 1010.5
20260510011150 8 78 0.0 0.0 0.00 0.00 0.00 74 1010.5
20260510010652 8 360 0.0 0.0 0.00 0.00 0.00 74 1010.5
20260510010138 8 79 0.0 0.0 0.00 0.00 0.00 74 1010.5
20260510005646 8 78 0.0 0.0 0.00 0.00 0.00 73 1010.6
20260510005154 8 78 0.0 0.0 0.00 0.00 0.00 73 1010.6
20260510004638 8 78 0.0 0.0 0.00 0.00 0.00 72 1010.6
20260510004140 8 78 0.0 0.0 0.00 0.00 0.00 72 1010.4
20260510003631 8 78 0.0 0.0 0.00 0.00 0.00 71 1010.4
20260510003137 8 78 0.0 0.0 0.00 0.00 0.00 70 1010.4
20260510002637 8 78 0.0 0.0 0.00 0.00 0.00 70 1010.8
20260510002141 8 78 0.0 0.0 0.00 0.00 0.00 70 1010.8
20260510001646 8 84 0.0 0.0 0.00 0.00 0.00 69 1010.8
20260510001145 9 78 0.0 0.0 0.00 0.00 0.00 69 1010.7
20260510000631 9 78 0.0 0.0 0.00 0.00 0.00 69 1010.7
20260510000150 9 78 0.0 0.0 0.00 0.00 0.00 69 1010.7
20260509235638 9 78 0.0 0.0 0.00 0.00 0.00 69 1010.7
20260509235143 9 78 0.0 0.0 0.00 0.00 0.00 68 1010.7
20260509234632 10 78 0.0 0.0 0.00 0.00 0.00 68 1010.7
20260509234138 10 78 0.0 0.0 0.00 0.00 0.00 68 1010.9
20260509233641 10 78 0.0 0.0 0.00 0.00 0.00 68 1010.9
20260509233152 10 78 0.0 0.0 0.00 0.00 0.00 67 1010.9
20260509232654 10 78 0.0 0.0 0.00 0.00 0.00 67 1011.6
20260509232139 10 80 0.0 0.0 0.00 0.00 0.00 67 1011.6
20260509231647 10 78 0.0 0.0 0.00 0.00 0.00 67 1011.6
20260509231139 10 78 0.0 0.0 0.00 0.00 0.00 67 1011.7
20260509230647 11 360 0.0 0.0 0.00 0.00 0.00 67 1011.7
20260509230149 11 78 0.0 0.0 0.00 0.00 0.00 67 1011.7
20260509225649 11 360 0.0 0.0 0.00 0.00 0.00 66 1011.8
20260509225143 11 78 0.0 0.0 0.00 0.00 0.00 66 1011.8
20260509224648 11 78 0.0 0.0 0.00 0.00 0.00 65 1011.8
20260509224137 11 78 0.0 0.0 0.00 0.00 0.00 64 1011.9
20260509223643 12 79 0.0 0.0 0.00 0.00 0.00 64 1011.9
20260509223151 12 360 0.0 0.0 0.00 0.00 0.00 64 1011.9
20260509222650 12 78 0.0 0.0 0.00 0.00 0.00 63 1012.6
20260509222139 12 78 0.0 0.0 0.00 0.00 0.00 63 1012.6
20260509221638 12 78 0.0 0.0 0.00 0.00 0.00 62 1012.6
20260509221140 12 78 0.0 0.0 0.00 0.00 0.00 62 1011.1
20260509220649 12 78 0.0 0.0 0.00 0.00 0.00 62 1011.1
20260509220154 12 78 0.0 0.0 0.00 0.00 0.00 62 1011.1
20260509215640 13 360 0.0 0.0 0.00 0.00 0.00 61 1011.0
20260509215141 13 78 0.0 0.0 0.00 0.00 0.00 61 1011.0
20260509214636 13 79 0.0 0.0 0.00 0.00 0.00 61 1011.0
20260509214150 13 79 0.0 0.0 0.00 0.00 0.00 61 1011.0
20260509213644 13 80 0.0 0.0 0.00 0.00 0.00 62 1011.0